owner,sensor,date,latitude,longitude,vertical_datum,direction_of_sea_water_velocity,sea_water_speed,upward_sea_water_velocity,qcFlag 
TABS,ioos:station:wmo:42043:1,2005-04-30T00:00:00Z,28.9818,-94.9186,2.0,274.2586858,21.27874056,-99999.0,'11111222,11111222,99999999' 
TABS,ioos:station:wmo:42043:1,2005-04-30T01:30:00Z,28.9818,-94.9186,2.0,274.2586858,21.27874056,-99999.0,'11111222,11111222,99999999' 
TABS,ioos:station:wmo:42043:1,2005-04-30T02:00:00Z,28.9818,-94.9186,2.0,272.9594982,21.30841148,-99999.0,'11111222,11111222,99999999' 
TABS,ioos:station:wmo:42043:1,2005-04-30T02:30:00Z,28.9818,-94.9186,2.0,275.3325673,24.85756625,-99999.0,'11111222,11111222,99999999' 
TABS,ioos:station:wmo:42043:1,2005-04-30T03:00:00Z,28.9818,-94.9186,2.0,275.1298226,23.93585595,-99999.0,'11111222,11111222,99999999' 
TABS,ioos:station:wmo:42043:1,2005-04-30T03:30:00Z,28.9818,-94.9186,2.0,276.1537992,22.01685037,-99999.0,'11111222,11111222,99999999' 
TABS,ioos:station:wmo:42043:1,2005-04-30T04:00:00Z,28.9818,-94.9186,2.0,278.5427917,24.37035905,-99999.0,'11111222,11111222,99999999' 
TABS,ioos:station:wmo:42043:1,2005-04-30T04:30:00Z,28.9818,-94.9186,2.0,284.4097576,20.85608065,-99999.0,'11111222,11111222,99999999' 
TABS,ioos:station:wmo:42043:1,2005-04-30T05:00:00Z,28.9818,-94.9186,2.0,285.024707,22.64406766,-99999.0,'11111222,11111222,99999999' 
TABS,ioos:station:wmo:42043:1,2005-04-30T05:30:00Z,28.9818,-94.9186,2.0,283.0129557,19.14154121,-99999.0,'11111222,11111222,99999999' 
TABS,ioos:station:wmo:42043:1,2005-04-30T06:00:00Z,28.9818,-94.9186,2.0,291.2048048,19.9614754,-99999.0,'11111222,11111222,99999999' 
TABS,ioos:station:wmo:42043:1,2005-04-30T06:30:00Z,28.9818,-94.9186,2.0,294.8030231,17.44958452,-99999.0,'11111222,11111222,99999999' 
TABS,ioos:station:wmo:42043:1,2005-04-30T07:00:00Z,28.9818,-94.9186,2.0,295.0829092,10.54435394,-99999.0,'11111222,11111222,99999999' 
TABS,ioos:station:wmo:42043:1,2005-04-30T07:30:00Z,28.9818,-94.9186,2.0,286.1138015,11.71003843,-99999.0,'11111222,11111222,99999999' 
TABS,ioos:station:wmo:42043:1,2005-04-30T08:00:00Z,28.9818,-94.9186,2.0,271.4285484,7.222243419,-99999.0,'11133222,11111222,99999999' 
TABS,ioos:station:wmo:42043:1,2005-04-30T08:30:00Z,28.9818,-94.9186,2.0,266.3834736,8.086099183,-99999.0,'11133222,11111222,99999999' 
TABS,ioos:station:wmo:42043:1,2005-04-30T09:00:00Z,28.9818,-94.9186,2.0,263.7397794,9.446322036,-99999.0,'11133222,11111222,99999999' 
TABS,ioos:station:wmo:42043:1,2005-04-30T09:30:00Z,28.9818,-94.9186,2.0,258.7043454,7.658335328,-99999.0,'11133222,11111222,99999999' 
TABS,ioos:station:wmo:42043:1,2005-04-30T10:00:00Z,28.9818,-94.9186,2.0,231.2108842,9.0190576,-99999.0,'11133222,11111222,99999999' 
TABS,ioos:station:wmo:42043:1,2005-04-30T10:30:00Z,28.9818,-94.9186,2.0,246.3702566,6.811057187,-99999.0,'11133222,11111222,99999999' 
TABS,ioos:station:wmo:42043:1,2005-04-30T11:00:00Z,28.9818,-94.9186,2.0,210.7682593,6.040215228,-99999.0,'11133222,11111222,99999999' 
TABS,ioos:station:wmo:42043:1,2005-04-30T11:30:00Z,28.9818,-94.9186,2.0,200.1677495,12.44292972,-99999.0,'11111222,11111222,99999999' 
TABS,ioos:station:wmo:42043:1,2005-04-30T12:00:00Z,28.9818,-94.9186,2.0,197.3732136,17.58211876,-99999.0,'11111222,11111222,99999999' 
TABS,ioos:station:wmo:42043:1,2005-04-30T12:30:00Z,28.9818,-94.9186,2.0,197.90691,21.62773451,-99999.0,'11111222,11111222,99999999' 
TABS,ioos:station:wmo:42043:1,2005-04-30T13:00:00Z,28.9818,-94.9186,2.0,202.4825116,21.86160104,-99999.0,'11111222,11111222,99999999' 
TABS,ioos:station:wmo:42043:1,2005-04-30T13:30:00Z,28.9818,-94.9186,2.0,201.1478421,30.12917025,-99999.0,'11111222,11111222,99999999' 
TABS,ioos:station:wmo:42043:1,2005-04-30T14:00:00Z,28.9818,-94.9186,2.0,199.8511,34.92537902,-99999.0,'11111222,11111222,99999999' 
TABS,ioos:station:wmo:42043:1,2005-04-30T14:30:00Z,28.9818,-94.9186,2.0,206.6755304,34.70383985,-99999.0,'11111222,11111222,99999999' 
TABS,ioos:station:wmo:42043:1,2005-04-30T15:00:00Z,28.9818,-94.9186,2.0,206.9042523,43.77850728,-99999.0,'11111222,11111222,99999999' 
TABS,ioos:station:wmo:42043:1,2005-04-30T15:30:00Z,28.9818,-94.9186,2.0,211.0105879,41.71189998,-99999.0,'11111222,11111222,99999999' 
TABS,ioos:station:wmo:42043:1,2005-04-30T16:00:00Z,28.9818,-94.9186,2.0,213.210328,43.08784631,-99999.0,'11111222,11111222,99999999' 
TABS,ioos:station:wmo:42043:1,2005-04-30T16:30:00Z,28.9818,-94.9186,2.0,216.4006157,42.51542426,-99999.0,'11111222,11111222,99999999' 
TABS,ioos:station:wmo:42043:1,2005-04-30T17:00:00Z,28.9818,-94.9186,2.0,220.5128833,39.49982911,-99999.0,'11111222,11111222,99999999' 
TABS,ioos:station:wmo:42043:1,2005-04-30T17:30:00Z,28.9818,-94.9186,2.0,226.0532248,34.611657,-99999.0,'11111222,11111222,99999999' 
TABS,ioos:station:wmo:42043:1,2005-04-30T18:00:00Z,28.9818,-94.9186,2.0,220.3900072,33.87392065,-99999.0,'11111222,11111222,99999999' 
TABS,ioos:station:wmo:42043:1,2005-04-30T18:30:00Z,28.9818,-94.9186,2.0,224.2445558,33.26519202,-99999.0,'11111222,11111222,99999999' 
TABS,ioos:station:wmo:42043:1,2005-04-30T19:00:00Z,28.9818,-94.9186,2.0,231.9751761,29.57800534,-99999.0,'11111222,11111222,99999999' 
TABS,ioos:station:wmo:42043:1,2005-04-30T19:30:00Z,28.9818,-94.9186,2.0,234.3754986,26.9543707,-99999.0,'11111222,11111222,99999999' 
TABS,ioos:station:wmo:42043:1,2005-04-30T20:00:00Z,28.9818,-94.9186,2.0,232.9755293,28.2321023,-99999.0,'11111222,11111222,99999999' 
TABS,ioos:station:wmo:42043:1,2005-04-30T20:30:00Z,28.9818,-94.9186,2.0,238.5983448,24.02936745,-99999.0,'11111222,11111222,99999999' 
TABS,ioos:station:wmo:42043:1,2005-04-30T21:00:00Z,28.9818,-94.9186,2.0,231.8718769,21.86526926,-99999.0,'11111222,11111222,99999999' 
TABS,ioos:station:wmo:42043:1,2005-04-30T21:30:00Z,28.9818,-94.9186,2.0,241.3241292,23.19481408,-99999.0,'11111222,11111222,99999999' 
TABS,ioos:station:wmo:42043:1,2005-04-30T22:00:00Z,28.9818,-94.9186,2.0,240.799554,22.56789977,-99999.0,'11111222,11111222,99999999' 
TABS,ioos:station:wmo:42043:1,2005-04-30T22:30:00Z,28.9818,-94.9186,2.0,237.9723603,24.94705193,-99999.0,'11111222,11111222,99999999' 
TABS,ioos:station:wmo:42043:1,2005-04-30T23:00:00Z,28.9818,-94.9186,2.0,241.4162911,23.6185859,-99999.0,'11111222,11111222,99999999' 
TABS,ioos:station:wmo:42043:1,2005-04-30T23:30:00Z,28.9818,-94.9186,2.0,237.3129141,20.59085477,-99999.0,'11111222,11111222,99999999' 
 
DISCLAIMER: The Gulf of Mexico Coastal and Ocean Observing (GCOOS) Data Portal aggregates data from the regional data providers for the convenience of all data users. Data published on this website should not be used for navigation or certain other uses as we cannot guarantee data accuracy or availability. The data and delivery services are provided 'as is' without warranty of any kind. Data Source: Gulf of Mexico Coastal Ocean Observing System Data Portal (http://data.gcoos.org/) 
